Weather History for Columbia, MO

Change the Weather History Date:

Saturday, July 27, 2013

  Actual Average Record
Temperature  
Mean Temperature 66 °F 77 °F  
Max Temperature 76 °F 88 °F 106 °F (1936)
Min Temperature 56 °F 67 °F 50 °F (1962)
Degree Days  
Heating Degree Days 0 0  
Month to date heating degree days 0 0  
Since 1 June heating degree days 6 11  
Since 1 July heating degree days 0 0  
Cooling Degree Days 1 12  
Month to date cooling degree days 301 330  
Year to date cooling degree days 702 681  
Since 1 June cooling degree days 568 578  
Growing Degree Days 16 (Base 50)    
Moisture  
Dew Point 53 °F    
Average Humidity 66    
Maximum Humidity 93    
Minimum Humidity 38    
Precipitation  
Precipitation 0.00 in 0.12 in 3.86 in (1957)
Month to date precipitation 2.29 3.87  
Year to date precipitation 31.05 24.89  
Snow  
Snow 0.00 in 0.00 in 0.00 in (2013)
Month to date snowfall 0.0 0.0  
Since 1 June snowfall 0.0 0.0  
Since 1 July snowfall 0.0 0.0  
Snow Depth 0.00 in    
Sea Level Pressure  
Sea Level Pressure 30.01 in    
Wind  
Wind Speed 9 mph (NNW)    
Max Wind Speed 17 mph    
Max Gust Speed 23 mph    
Visibility 10 miles    
Events      
T = Trace of Precipitation, MM = Missing Value Source: NWS Daily Summary

Daily Weather History Graph

Daily Weather History Graph

Search for Another Location

Airport:

Trip Planner

Search our weather history database for the weather conditions in past years. The results will help you decide how hot, cold, wet, or windy it might be!

Date:

Astronomy

Jul. 27, 2013 Rise Set
Actual Time 6:05 AM CDT 8:24 PM CDT
Civil Twilight 5:35 AM CDT 8:54 PM CDT
Nautical Twilight 4:58 AM CDT 9:31 PM CDT
Astronomical Twilight 4:18 AM CDT 10:11 PM CDT
Moon 11:16 PM CDT (7/27) 11:42 AM CDT (7/27)
Length of Visible Light 15h 18m
Length of Day
14h 18m
Waning Gibbous, 70% of the Moon is Illuminated
Jul 27
Waning Gibbous
Jul 29
Last Quarter
Aug 6
New
Aug 14
First Quarter
Aug 20
Full

Hourly Weather History & Observations

Time (CDT) Temp. Dew Point Humidity Pressure Visibility Wind Dir Wind Speed Gust Speed Precip Events Conditions
12:54 AM 66.0 °F 59.0 °F 78% 30.01 in 10.0 mi North 10.4 mph - N/A   Partly Cloudy
1:54 AM 62.1 °F 57.0 °F 84% 30.01 in 10.0 mi North 9.2 mph - N/A   Clear
2:54 AM 61.0 °F 55.9 °F 83% 30.01 in 10.0 mi NNW 5.8 mph - N/A   Clear
3:54 AM 60.1 °F 55.9 °F 86% 30.01 in 10.0 mi NW 4.6 mph - N/A   Clear
4:54 AM 59.0 °F 55.9 °F 90% 30.02 in 10.0 mi NW 4.6 mph - N/A   Clear
5:54 AM 57.9 °F 55.0 °F 90% 30.03 in 10.0 mi NW 6.9 mph - N/A   Clear
6:54 AM 59.0 °F 55.9 °F 90% 30.03 in 10.0 mi NNW 8.1 mph - N/A   Clear
7:54 AM 62.1 °F 55.9 °F 80% 30.04 in 10.0 mi NNW 9.2 mph - N/A   Clear
8:54 AM 64.9 °F 55.0 °F 70% 30.06 in 10.0 mi North 13.8 mph - N/A   Clear
9:54 AM 66.9 °F 55.0 °F 66% 30.06 in 10.0 mi North 10.4 mph - N/A   Clear
10:54 AM 70.0 °F 55.0 °F 59% 30.05 in 10.0 mi NNW 9.2 mph - N/A   Scattered Clouds
11:54 AM 71.1 °F 52.0 °F 51% 30.03 in 10.0 mi North 13.8 mph - N/A   Partly Cloudy
12:54 PM 73.0 °F 52.0 °F 48% 30.03 in 10.0 mi North 12.7 mph - N/A   Partly Cloudy
1:54 PM 73.9 °F 50.0 °F 43% 30.01 in 10.0 mi WNW 12.7 mph 23.0 mph N/A   Scattered Clouds
2:54 PM 75.0 °F 52.0 °F 44% 30.00 in 10.0 mi WNW 15.0 mph 21.9 mph N/A   Scattered Clouds
3:54 PM 73.9 °F 50.0 °F 43% 29.99 in 10.0 mi NW 16.1 mph 23.0 mph N/A   Scattered Clouds
4:54 PM 73.0 °F 48.9 °F 42% 29.99 in 10.0 mi NNW 13.8 mph - N/A   Scattered Clouds
5:54 PM 75.0 °F 48.0 °F 38% 29.99 in 10.0 mi WNW 12.7 mph - N/A   Partly Cloudy
6:54 PM 73.0 °F 48.9 °F 42% 29.98 in 10.0 mi NW 9.2 mph - N/A   Clear
7:54 PM 70.0 °F 51.1 °F 51% 29.98 in 10.0 mi WNW 3.5 mph - N/A   Clear
8:54 PM 66.0 °F 53.1 °F 63% 29.99 in 10.0 mi NNW 3.5 mph - N/A   Clear
9:54 PM 64.9 °F 51.1 °F 61% 30.00 in 10.0 mi North 3.5 mph - N/A   Clear
10:54 PM 60.1 °F 52.0 °F 75% 30.00 in 10.0 mi Calm Calm - N/A   Clear
11:54 PM 57.9 °F 51.1 °F 78% 30.00 in 10.0 mi NNE 5.8 mph - N/A   Clear